Year,Month,Day,Hour,Minute,Value (Times are PST for temperature in C)
2008,09,16,00,00,13.70
2008,09,16,00,01,13.70
2008,09,16,00,02,13.70
2008,09,16,00,03,13.70
2008,09,16,00,04,13.60
2008,09,16,00,05,13.60
2008,09,16,00,06,13.60
2008,09,16,00,07,13.60
2008,09,16,00,08,13.60
2008,09,16,00,09,13.60
2008,09,16,00,10,13.60
2008,09,16,00,11,13.50
2008,09,16,00,12,13.50
2008,09,16,00,13,13.50
2008,09,16,00,14,13.50
2008,09,16,00,15,13.50
2008,09,16,00,16,13.50
2008,09,16,00,17,13.50
2008,09,16,00,18,13.60
2008,09,16,00,19,13.60
2008,09,16,00,20,13.60
2008,09,16,00,21,13.60
2008,09,16,00,22,13.60
2008,09,16,00,23,13.60
2008,09,16,00,24,13.60
2008,09,16,00,25,13.60
2008,09,16,00,26,13.60
2008,09,16,00,27,13.60
2008,09,16,00,28,13.60
2008,09,16,00,29,13.60
2008,09,16,00,30,13.60
2008,09,16,00,31,13.60
2008,09,16,00,32,13.60
2008,09,16,00,33,13.60
2008,09,16,00,34,13.60
2008,09,16,00,35,13.60
2008,09,16,00,36,13.60
2008,09,16,00,37,13.60
2008,09,16,00,38,13.60
2008,09,16,00,39,13.60
2008,09,16,00,40,13.60
2008,09,16,00,41,13.70
2008,09,16,00,42,13.70
2008,09,16,00,43,13.70
2008,09,16,00,44,13.70
2008,09,16,00,45,13.70
2008,09,16,00,46,13.70
2008,09,16,00,47,13.70
2008,09,16,00,48,13.70
2008,09,16,00,49,13.70
2008,09,16,00,50,13.70
2008,09,16,00,51,13.70
2008,09,16,00,52,13.70
2008,09,16,00,53,13.70
2008,09,16,00,54,13.70
2008,09,16,00,55,13.70
2008,09,16,00,56,13.70
2008,09,16,00,57,13.60
2008,09,16,00,58,13.60
2008,09,16,00,59,13.60
2008,09,16,01,00,13.60
2008,09,16,01,01,13.50
2008,09,16,01,02,13.50
2008,09,16,01,03,13.50
2008,09,16,01,04,13.40
2008,09,16,01,05,13.40
2008,09,16,01,06,13.40
2008,09,16,01,07,13.40
2008,09,16,01,08,13.30
2008,09,16,01,09,13.30
2008,09,16,01,10,13.30
2008,09,16,01,11,13.30
2008,09,16,01,12,13.20
2008,09,16,01,13,13.20
2008,09,16,01,14,13.20
2008,09,16,01,15,13.20
2008,09,16,01,16,13.10
2008,09,16,01,17,13.10
2008,09,16,01,18,13.10
2008,09,16,01,19,13.10
2008,09,16,01,20,13.10
2008,09,16,01,21,13.10
2008,09,16,01,22,13.10
2008,09,16,01,23,13.10
2008,09,16,01,24,13.10
2008,09,16,01,25,13.10
2008,09,16,01,26,13.00
2008,09,16,01,27,13.00
2008,09,16,01,28,12.90
2008,09,16,01,29,12.90
2008,09,16,01,30,12.90
2008,09,16,01,31,12.90
2008,09,16,01,32,12.80
2008,09,16,01,33,12.80
2008,09,16,01,34,12.80
2008,09,16,01,35,12.80
2008,09,16,01,36,12.70
2008,09,16,01,37,12.70
2008,09,16,01,38,12.70
2008,09,16,01,39,12.60
2008,09,16,01,40,12.60
2008,09,16,01,41,12.50
2008,09,16,01,42,12.50
2008,09,16,01,43,12.50
2008,09,16,01,44,12.40
2008,09,16,01,45,12.40
2008,09,16,01,46,12.40
2008,09,16,01,47,12.40
2008,09,16,01,48,12.40
2008,09,16,01,49,12.40
2008,09,16,01,50,12.30
2008,09,16,01,51,12.30
2008,09,16,01,52,12.30
2008,09,16,01,53,12.30
2008,09,16,01,54,12.30
2008,09,16,01,55,12.30
2008,09,16,01,56,12.30
2008,09,16,01,57,12.30
2008,09,16,01,58,12.30
2008,09,16,01,59,12.30
2008,09,16,02,00,12.30
2008,09,16,02,01,12.20
2008,09,16,02,02,12.20
2008,09,16,02,03,12.20
2008,09,16,02,04,12.20
2008,09,16,02,05,12.20
2008,09,16,02,06,12.20
2008,09,16,02,07,12.20
2008,09,16,02,08,12.10
2008,09,16,02,09,12.10
2008,09,16,02,10,12.10
2008,09,16,02,11,12.10
2008,09,16,02,12,12.10
2008,09,16,02,13,12.10
2008,09,16,02,14,12.10
2008,09,16,02,15,12.10
2008,09,16,02,16,12.10
2008,09,16,02,17,12.10
2008,09,16,02,18,12.10
2008,09,16,02,19,12.00
2008,09,16,02,20,12.00
2008,09,16,02,21,12.10
2008,09,16,02,22,12.00
2008,09,16,02,23,12.00
2008,09,16,02,24,12.00
2008,09,16,02,25,12.00
2008,09,16,02,26,12.00
2008,09,16,02,27,12.00
2008,09,16,02,28,12.00
2008,09,16,02,29,12.00
2008,09,16,02,30,12.00
2008,09,16,02,31,12.00
2008,09,16,02,32,12.00
2008,09,16,02,33,12.00
2008,09,16,02,34,11.90
2008,09,16,02,35,11.90
2008,09,16,02,36,11.90
2008,09,16,02,37,11.90
2008,09,16,02,38,11.90
2008,09,16,02,39,11.90
2008,09,16,02,40,11.90
2008,09,16,02,41,11.90
2008,09,16,02,42,11.80
2008,09,16,02,43,11.80
2008,09,16,02,44,11.80
2008,09,16,02,45,11.80
2008,09,16,02,46,11.80
2008,09,16,02,47,11.80
2008,09,16,02,48,11.70
2008,09,16,02,49,11.70
2008,09,16,02,50,11.70
2008,09,16,02,51,11.70
2008,09,16,02,52,11.70
2008,09,16,02,53,11.70
2008,09,16,02,54,11.70
2008,09,16,02,55,11.60
2008,09,16,02,56,11.60
2008,09,16,02,57,11.60
2008,09,16,02,58,11.60
2008,09,16,02,59,11.60
2008,09,16,03,00,11.60
2008,09,16,03,01,11.60
2008,09,16,03,02,11.60
2008,09,16,03,03,11.60
2008,09,16,03,04,11.50
2008,09,16,03,05,11.50
2008,09,16,03,06,11.50
2008,09,16,03,07,11.50
2008,09,16,03,08,11.50
2008,09,16,03,09,11.40
2008,09,16,03,10,11.40
2008,09,16,03,11,11.40
2008,09,16,03,12,11.40
2008,09,16,03,13,11.40
2008,09,16,03,14,11.40
2008,09,16,03,15,11.40
2008,09,16,03,16,11.40
2008,09,16,03,17,11.40
2008,09,16,03,18,11.40
2008,09,16,03,19,11.30
2008,09,16,03,20,11.30
2008,09,16,03,21,11.30
2008,09,16,03,22,11.30
2008,09,16,03,23,11.30
2008,09,16,03,24,11.30
2008,09,16,03,25,11.30
2008,09,16,03,26,11.30
2008,09,16,03,27,11.20
2008,09,16,03,28,11.20
2008,09,16,03,29,11.20
2008,09,16,03,30,11.20
2008,09,16,04,02,10.90
2008,09,16,04,03,10.90
2008,09,16,04,04,10.90
2008,09,16,04,05,10.90
2008,09,16,04,06,10.90
2008,09,16,04,07,10.90
2008,09,16,04,08,10.90
2008,09,16,04,09,10.80
2008,09,16,04,10,10.80
2008,09,16,04,11,10.80
2008,09,16,04,12,10.80
2008,09,16,04,13,10.80
2008,09,16,04,14,10.80
2008,09,16,04,15,10.80
2008,09,16,04,16,10.80
2008,09,16,04,17,10.80
2008,09,16,04,18,10.80
2008,09,16,04,19,10.80
2008,09,16,04,20,10.80
2008,09,16,04,21,10.80
2008,09,16,04,22,10.80
2008,09,16,04,23,10.80
2008,09,16,04,24,10.80
2008,09,16,04,25,10.80
2008,09,16,04,26,10.80
2008,09,16,04,27,10.90
2008,09,16,04,28,10.90
2008,09,16,04,29,10.90
2008,09,16,04,30,11.00
2008,09,16,04,31,11.00
2008,09,16,04,32,11.00
2008,09,16,04,33,11.00
2008,09,16,04,34,11.00
2008,09,16,04,35,11.00
2008,09,16,04,36,11.00
2008,09,16,04,37,10.90
2008,09,16,04,38,11.00
2008,09,16,04,39,11.00
2008,09,16,04,40,11.10
2008,09,16,04,41,11.10
2008,09,16,04,42,11.10
2008,09,16,04,43,11.10
2008,09,16,04,44,11.10
2008,09,16,04,45,11.10
2008,09,16,04,46,11.10
2008,09,16,04,47,11.10
2008,09,16,04,48,11.10
2008,09,16,04,49,11.10
2008,09,16,04,50,11.10
2008,09,16,04,51,11.10
2008,09,16,04,52,11.10
2008,09,16,04,53,11.00
2008,09,16,04,54,11.00
2008,09,16,04,55,11.00
2008,09,16,04,56,11.00
2008,09,16,04,57,11.00
2008,09,16,04,58,11.00
2008,09,16,04,59,11.00
2008,09,16,05,00,11.00
2008,09,16,05,01,10.90
2008,09,16,05,02,10.90
2008,09,16,05,03,10.90
2008,09,16,05,04,10.90
2008,09,16,05,05,10.90
2008,09,16,05,06,10.90
2008,09,16,05,07,10.90
2008,09,16,05,08,10.90
2008,09,16,05,09,10.90
2008,09,16,05,10,10.90
2008,09,16,05,11,10.90
2008,09,16,05,12,10.80
2008,09,16,05,13,10.80
2008,09,16,05,14,10.80
2008,09,16,05,15,10.80
2008,09,16,05,16,10.80
2008,09,16,05,17,10.80
2008,09,16,05,18,10.80
2008,09,16,05,19,10.70
2008,09,16,05,20,10.70
2008,09,16,05,21,10.70
2008,09,16,05,22,10.70
2008,09,16,05,23,10.70
2008,09,16,05,24,10.60
2008,09,16,05,25,10.60
2008,09,16,05,26,10.60
2008,09,16,05,27,10.60
2008,09,16,05,28,10.60
2008,09,16,05,29,10.60
2008,09,16,05,30,10.60
2008,09,16,05,31,10.60
2008,09,16,05,32,10.60
2008,09,16,05,33,10.60
2008,09,16,05,34,10.60
2008,09,16,05,35,10.60
2008,09,16,05,36,10.60
2008,09,16,05,37,10.60
2008,09,16,05,38,10.60
2008,09,16,05,39,10.60
2008,09,16,05,40,10.60
2008,09,16,05,41,10.60
2008,09,16,05,42,10.60
2008,09,16,05,43,10.60
2008,09,16,05,44,10.60
2008,09,16,05,45,10.60
2008,09,16,05,46,10.60
2008,09,16,05,47,10.60
2008,09,16,05,48,10.60
2008,09,16,05,49,10.60
2008,09,16,05,50,10.60
2008,09,16,05,51,10.60
2008,09,16,05,52,10.50
2008,09,16,05,53,10.50
2008,09,16,05,54,10.50
2008,09,16,05,55,10.50
2008,09,16,05,56,10.50
2008,09,16,05,57,10.40
2008,09,16,05,58,10.40
2008,09,16,05,59,10.40
2008,09,16,06,00,10.40
2008,09,16,06,01,10.40
2008,09,16,06,02,10.40
2008,09,16,06,03,10.40
2008,09,16,06,04,10.30
2008,09,16,06,05,10.30
2008,09,16,06,06,10.30
2008,09,16,06,07,10.30
2008,09,16,06,08,10.30
2008,09,16,06,09,10.30
2008,09,16,06,10,10.30
2008,09,16,06,11,10.30
2008,09,16,06,12,10.30
2008,09,16,06,13,10.30
2008,09,16,06,14,10.30
2008,09,16,06,15,10.30
2008,09,16,06,16,10.30
2008,09,16,06,17,10.30
2008,09,16,06,18,10.30
2008,09,16,06,19,10.30
2008,09,16,06,20,10.30
2008,09,16,06,21,10.30
2008,09,16,06,22,10.30
2008,09,16,06,23,10.30
2008,09,16,06,24,10.30
2008,09,16,06,25,10.30
2008,09,16,06,26,10.30
2008,09,16,06,27,10.30
2008,09,16,06,28,10.30
2008,09,16,06,29,10.30
2008,09,16,06,30,10.30
2008,09,16,06,31,10.30
2008,09,16,06,32,10.30
2008,09,16,06,33,10.30
2008,09,16,06,34,10.30
2008,09,16,06,35,10.30
2008,09,16,06,36,10.30
2008,09,16,06,37,10.30
2008,09,16,06,38,10.30
2008,09,16,06,39,10.30
2008,09,16,06,40,10.30
2008,09,16,06,41,10.30
2008,09,16,06,42,10.30
2008,09,16,06,43,10.30
2008,09,16,06,44,10.30
2008,09,16,06,45,10.30
2008,09,16,06,46,10.30
2008,09,16,06,47,10.30
2008,09,16,06,48,10.30
2008,09,16,06,49,10.30
2008,09,16,06,50,10.30
2008,09,16,06,51,10.30
2008,09,16,06,52,10.30
2008,09,16,06,53,10.30
2008,09,16,06,54,10.30
2008,09,16,06,55,10.30
2008,09,16,06,56,10.30
2008,09,16,06,57,10.30
2008,09,16,06,58,10.30
2008,09,16,06,59,10.30
2008,09,16,07,00,10.30
2008,09,16,07,01,10.30
2008,09,16,07,02,10.30
2008,09,16,07,03,10.30
2008,09,16,07,04,10.30
2008,09,16,07,05,10.30
2008,09,16,07,06,10.30
2008,09,16,07,07,10.30
2008,09,16,07,08,10.30
2008,09,16,07,09,10.30
2008,09,16,07,10,10.30
2008,09,16,07,11,10.30
2008,09,16,07,12,10.30
2008,09,16,07,13,10.30
2008,09,16,07,14,10.30
2008,09,16,07,15,10.30
2008,09,16,07,16,10.30
2008,09,16,07,17,10.30
2008,09,16,07,18,10.30
2008,09,16,07,19,10.30
2008,09,16,07,20,10.30
2008,09,16,07,21,10.30
2008,09,16,07,22,10.30
2008,09,16,07,23,10.40
2008,09,16,07,24,10.40
2008,09,16,07,25,10.40
2008,09,16,07,26,10.50
2008,09,16,07,27,10.50
2008,09,16,07,28,10.60
2008,09,16,07,29,10.60
2008,09,16,07,30,10.60
2008,09,16,07,31,10.60
2008,09,16,07,32,10.60
2008,09,16,07,33,10.60
2008,09,16,07,34,10.70
2008,09,16,07,35,10.70
2008,09,16,07,36,10.70
2008,09,16,07,37,10.70
2008,09,16,07,38,10.70
2008,09,16,07,39,10.70
2008,09,16,07,40,10.80
2008,09,16,07,41,10.80
2008,09,16,07,42,10.80
2008,09,16,07,43,10.80
2008,09,16,07,44,10.80
2008,09,16,07,45,10.90
2008,09,16,07,46,10.90
2008,09,16,07,47,10.90
2008,09,16,07,48,11.00
2008,09,16,07,49,11.00
2008,09,16,07,50,11.10
2008,09,16,07,51,11.10
2008,09,16,07,52,11.10
2008,09,16,07,53,11.10
2008,09,16,07,54,11.20
2008,09,16,07,55,11.20
2008,09,16,07,56,11.20
2008,09,16,07,57,11.20
2008,09,16,07,58,11.30
2008,09,16,07,59,11.30
2008,09,16,08,00,11.30
2008,09,16,08,01,11.40
2008,09,16,08,02,11.40
2008,09,16,08,03,11.40
2008,09,16,08,04,11.40
2008,09,16,08,05,11.50
2008,09,16,08,06,11.50
2008,09,16,08,07,11.60
2008,09,16,08,08,11.60
2008,09,16,08,09,11.70
2008,09,16,08,10,11.70
2008,09,16,08,11,11.80
2008,09,16,08,12,11.90
2008,09,16,08,13,12.00
2008,09,16,08,14,12.10
2008,09,16,08,15,12.10
2008,09,16,08,16,12.20
2008,09,16,08,17,12.30
2008,09,16,08,18,12.30
2008,09,16,08,19,12.40
2008,09,16,08,20,12.50
2008,09,16,08,21,12.60
2008,09,16,08,22,12.70
2008,09,16,08,23,12.70
2008,09,16,08,24,12.80
2008,09,16,08,25,12.80
2008,09,16,08,26,12.90
2008,09,16,08,27,13.00
2008,09,16,08,28,13.10
2008,09,16,08,29,13.20
2008,09,16,08,30,13.20
2008,09,16,08,31,13.30
2008,09,16,08,32,13.40
2008,09,16,08,33,13.50
2008,09,16,08,34,13.60
2008,09,16,08,35,13.80
2008,09,16,08,36,13.90
2008,09,16,08,37,14.00
2008,09,16,08,38,14.10
2008,09,16,08,39,14.30
2008,09,16,08,40,14.40
2008,09,16,08,41,14.50
2008,09,16,08,42,14.60
2008,09,16,08,43,14.70
2008,09,16,08,44,14.90
2008,09,16,08,45,15.00
2008,09,16,08,46,15.00
2008,09,16,08,47,15.00
2008,09,16,08,48,15.10
2008,09,16,08,49,15.20
2008,09,16,08,50,15.20
2008,09,16,08,51,15.30
2008,09,16,08,52,15.30
2008,09,16,08,53,15.40
2008,09,16,08,54,15.50
2008,09,16,08,55,15.50
2008,09,16,08,56,15.60
2008,09,16,08,57,15.70
2008,09,16,08,58,15.80
2008,09,16,08,59,15.90
2008,09,16,09,00,16.00
2008,09,16,09,01,16.10
2008,09,16,09,02,16.20
2008,09,16,09,03,16.30
2008,09,16,09,04,16.40
2008,09,16,09,05,16.50
2008,09,16,09,06,16.60
2008,09,16,09,07,16.70
2008,09,16,09,08,16.80
2008,09,16,09,09,16.90
2008,09,16,09,10,17.10
2008,09,16,09,11,17.30
2008,09,16,09,12,17.50
2008,09,16,09,13,17.70
2008,09,16,09,14,17.80
2008,09,16,09,15,18.00
2008,09,16,09,16,18.10
2008,09,16,09,17,18.30
2008,09,16,09,18,18.30
2008,09,16,09,19,18.40
2008,09,16,09,20,18.50
2008,09,16,09,21,18.50
2008,09,16,09,22,18.40
2008,09,16,09,23,18.40
2008,09,16,09,24,18.30
2008,09,16,09,25,18.20
2008,09,16,09,26,18.20
2008,09,16,09,27,18.20
2008,09,16,09,28,18.20
2008,09,16,09,29,18.20
2008,09,16,09,30,18.20
2008,09,16,09,31,18.10
2008,09,16,09,32,18.10
2008,09,16,09,33,18.10
2008,09,16,09,34,17.90
2008,09,16,09,35,17.80
2008,09,16,09,36,17.60
2008,09,16,09,37,17.50
2008,09,16,09,38,17.40
2008,09,16,09,39,17.30
2008,09,16,09,40,17.30
2008,09,16,09,41,17.30
2008,09,16,09,42,17.30
2008,09,16,09,43,17.40
2008,09,16,09,44,17.40
2008,09,16,09,45,17.50
2008,09,16,09,46,17.50
2008,09,16,09,47,17.60
2008,09,16,09,48,17.60
2008,09,16,09,49,17.70
2008,09,16,09,50,17.80
2008,09,16,09,51,17.90
2008,09,16,09,52,18.10
2008,09,16,09,53,18.20
2008,09,16,09,54,18.20
2008,09,16,09,55,18.30
2008,09,16,09,56,18.30
2008,09,16,09,57,18.40
2008,09,16,09,58,18.40
2008,09,16,09,59,18.40
2008,09,16,10,00,18.40
2008,09,16,10,01,18.40
2008,09,16,10,02,18.50
2008,09,16,10,03,18.60
2008,09,16,10,04,18.60
2008,09,16,10,05,18.60
2008,09,16,10,06,18.70
2008,09,16,10,07,18.70
2008,09,16,10,08,18.70
2008,09,16,10,09,18.80
2008,09,16,10,10,18.80
2008,09,16,10,11,18.90
2008,09,16,10,12,18.90
2008,09,16,10,13,19.00
2008,09,16,10,14,19.00
2008,09,16,10,15,19.10
2008,09,16,10,16,19.10
2008,09,16,10,17,19.10
2008,09,16,10,18,19.20
2008,09,16,10,19,19.20
2008,09,16,10,20,19.30
2008,09,16,10,21,19.30
2008,09,16,10,22,19.40
2008,09,16,10,23,19.50
2008,09,16,10,24,19.60
2008,09,16,10,25,19.70
2008,09,16,10,26,19.80
2008,09,16,10,27,19.90
2008,09,16,10,28,20.00
2008,09,16,10,29,20.10
2008,09,16,10,30,20.20
2008,09,16,10,31,20.30
2008,09,16,10,32,20.40
2008,09,16,10,33,20.40
2008,09,16,10,34,20.50
2008,09,16,10,35,20.60
2008,09,16,10,36,20.60
2008,09,16,10,37,20.70
2008,09,16,10,38,20.70
2008,09,16,10,39,20.80
2008,09,16,10,40,20.80
2008,09,16,10,41,20.90
2008,09,16,10,42,20.80
2008,09,16,10,43,20.80
2008,09,16,10,44,20.70
2008,09,16,10,45,20.70
2008,09,16,10,46,20.70
2008,09,16,10,47,20.70
2008,09,16,10,48,20.70
2008,09,16,10,49,20.60
2008,09,16,10,50,20.70
2008,09,16,10,51,20.70
2008,09,16,10,52,20.70
2008,09,16,10,53,20.70
2008,09,16,10,54,20.70
2008,09,16,10,55,20.80
2008,09,16,10,56,20.80
2008,09,16,10,57,20.80
2008,09,16,10,58,20.80
2008,09,16,10,59,20.80
2008,09,16,11,00,20.70
2008,09,16,11,01,20.60
2008,09,16,11,02,20.60
2008,09,16,11,03,20.60
2008,09,16,11,04,20.60
2008,09,16,11,05,20.70
2008,09,16,11,06,20.80
2008,09,16,11,07,20.90
2008,09,16,11,08,20.90
2008,09,16,11,09,21.00
2008,09,16,11,10,21.00
2008,09,16,11,11,21.10
2008,09,16,11,12,21.10
2008,09,16,11,13,21.20
2008,09,16,11,14,21.30
2008,09,16,11,15,21.30
2008,09,16,11,16,21.40
2008,09,16,11,17,21.50
2008,09,16,11,18,21.60
2008,09,16,11,19,21.60
2008,09,16,11,20,21.70
2008,09,16,11,21,21.70
2008,09,16,11,22,21.80
2008,09,16,11,23,21.80
2008,09,16,11,24,21.70
2008,09,16,11,25,21.70
2008,09,16,11,26,21.70
2008,09,16,11,27,21.70
2008,09,16,11,28,21.60
2008,09,16,11,29,21.60
2008,09,16,11,30,21.50
2008,09,16,11,31,21.50
2008,09,16,11,32,21.50
2008,09,16,11,33,21.40
2008,09,16,11,34,21.30
2008,09,16,11,35,21.30
2008,09,16,11,36,21.30
2008,09,16,11,37,21.30
2008,09,16,11,38,21.40
2008,09,16,11,39,21.40
2008,09,16,11,40,21.40
2008,09,16,11,41,21.30
2008,09,16,11,42,21.20
2008,09,16,11,43,21.10
2008,09,16,11,44,21.00
2008,09,16,11,45,20.90
2008,09,16,11,46,20.80
2008,09,16,11,47,20.70
2008,09,16,11,48,20.70
2008,09,16,11,49,20.60
2008,09,16,11,50,20.60
2008,09,16,11,51,20.70
2008,09,16,11,52,20.80
2008,09,16,11,53,20.90
2008,09,16,11,54,21.00
2008,09,16,11,55,21.10
2008,09,16,11,56,21.10
2008,09,16,11,57,21.20
2008,09,16,11,58,21.30
2008,09,16,11,59,21.40
2008,09,16,12,00,21.40
2008,09,16,12,01,21.50
2008,09,16,12,02,21.60
2008,09,16,12,03,21.60
2008,09,16,12,04,21.60
2008,09,16,12,05,21.70
2008,09,16,12,06,21.60
2008,09,16,12,07,21.60
2008,09,16,12,08,21.60
2008,09,16,12,09,21.60
2008,09,16,12,10,21.70
2008,09,16,12,11,21.70
2008,09,16,12,12,21.80
2008,09,16,12,13,21.80
2008,09,16,12,14,21.80
2008,09,16,12,15,21.80
2008,09,16,12,16,21.90
2008,09,16,12,17,21.90
2008,09,16,12,18,22.00
2008,09,16,12,19,22.10
2008,09,16,12,20,22.20
2008,09,16,12,21,22.20
2008,09,16,12,22,22.30
2008,09,16,12,23,22.30
2008,09,16,12,24,22.30
2008,09,16,12,25,22.20
2008,09,16,12,26,22.00
2008,09,16,12,27,21.80
2008,09,16,12,28,21.60
2008,09,16,12,29,21.50
2008,09,16,12,30,21.40
2008,09,16,12,31,21.40
2008,09,16,12,32,21.50
2008,09,16,12,33,21.50
2008,09,16,12,34,21.60
2008,09,16,12,35,21.60
2008,09,16,12,36,21.50
2008,09,16,12,37,21.40
2008,09,16,12,38,21.50
2008,09,16,12,39,21.50
2008,09,16,12,40,21.50
2008,09,16,12,41,21.60
2008,09,16,12,42,21.80
2008,09,16,12,43,21.90
2008,09,16,12,44,21.90
2008,09,16,12,45,21.90
2008,09,16,12,46,21.90
2008,09,16,12,47,21.90
2008,09,16,12,48,21.90
2008,09,16,12,49,21.90
2008,09,16,12,50,22.00
2008,09,16,12,51,22.10
2008,09,16,12,52,22.00
2008,09,16,12,53,21.90
2008,09,16,12,54,21.90
2008,09,16,12,55,21.90
2008,09,16,12,56,21.90
2008,09,16,12,57,21.80
2008,09,16,12,58,21.90
2008,09,16,12,59,21.90
2008,09,16,13,00,21.80
2008,09,16,13,01,21.80
2008,09,16,13,02,21.70
2008,09,16,13,03,21.60
2008,09,16,13,04,21.50
2008,09,16,13,05,21.50
2008,09,16,13,06,21.60
2008,09,16,13,07,21.50
2008,09,16,13,08,21.40
2008,09,16,13,09,21.40
2008,09,16,13,10,21.40
2008,09,16,13,11,21.40
2008,09,16,13,12,21.40
2008,09,16,13,13,21.50
2008,09,16,13,14,21.60
2008,09,16,13,15,21.70
2008,09,16,13,16,21.80
2008,09,16,13,17,21.90
2008,09,16,13,18,21.90
2008,09,16,13,19,22.00
2008,09,16,13,20,22.10
2008,09,16,13,21,22.10
2008,09,16,13,22,22.10
2008,09,16,13,23,22.20
2008,09,16,13,24,22.10
2008,09,16,13,25,22.10
2008,09,16,13,26,22.00
2008,09,16,13,27,21.90
2008,09,16,13,28,21.90
2008,09,16,13,29,21.90
2008,09,16,13,30,21.90
2008,09,16,13,31,21.80
2008,09,16,13,32,21.80
2008,09,16,13,33,21.80
2008,09,16,13,34,21.80
2008,09,16,13,35,21.90
2008,09,16,13,36,21.90
2008,09,16,13,37,22.00
2008,09,16,13,38,22.10
2008,09,16,13,39,22.10
2008,09,16,13,40,22.10
2008,09,16,13,41,22.10
2008,09,16,13,42,22.10
2008,09,16,13,43,22.20
2008,09,16,13,44,22.20
2008,09,16,13,45,22.30
2008,09,16,13,46,22.20
2008,09,16,13,47,22.10
2008,09,16,13,48,21.90
2008,09,16,13,49,21.90
2008,09,16,13,50,21.90
2008,09,16,13,51,21.80
2008,09,16,13,52,21.80
2008,09,16,13,53,21.80
2008,09,16,13,54,21.80
2008,09,16,13,55,21.80
2008,09,16,13,56,21.80
2008,09,16,13,57,21.80
2008,09,16,13,58,21.80
2008,09,16,13,59,21.80
2008,09,16,14,00,21.80
2008,09,16,14,01,21.80
2008,09,16,14,02,21.80
2008,09,16,14,03,21.90
2008,09,16,14,04,22.00
2008,09,16,14,05,22.10
2008,09,16,14,06,22.10
2008,09,16,14,07,22.10
2008,09,16,14,08,22.20
2008,09,16,14,09,22.20
2008,09,16,14,10,22.10
2008,09,16,14,11,22.10
2008,09,16,14,12,22.20
2008,09,16,14,13,22.20
2008,09,16,14,14,22.20
2008,09,16,14,15,22.20
2008,09,16,14,16,22.20
2008,09,16,14,17,22.30
2008,09,16,14,18,22.30
2008,09,16,14,19,22.30
2008,09,16,14,20,22.30
2008,09,16,14,21,22.30
2008,09,16,14,22,22.40
2008,09,16,14,23,22.40
2008,09,16,14,24,22.40
2008,09,16,14,25,22.50
2008,09,16,14,26,22.60
2008,09,16,14,27,22.60
2008,09,16,14,28,22.60
2008,09,16,14,29,22.60
2008,09,16,14,30,22.50
2008,09,16,14,31,22.40
2008,09,16,14,32,22.50
2008,09,16,14,33,22.60
2008,09,16,14,34,22.60
2008,09,16,14,35,22.70
2008,09,16,14,36,22.80
2008,09,16,14,37,22.80
2008,09,16,14,38,22.80
2008,09,16,14,39,22.80
2008,09,16,14,40,22.80
2008,09,16,14,41,22.90
2008,09,16,14,42,22.90
2008,09,16,14,43,23.00
2008,09,16,14,44,23.10
2008,09,16,14,45,23.20
2008,09,16,14,46,23.30
2008,09,16,14,47,23.40
2008,09,16,14,48,23.50
2008,09,16,14,49,23.60
2008,09,16,14,50,23.70
2008,09,16,14,51,23.70
2008,09,16,14,52,23.80
2008,09,16,14,53,23.80
2008,09,16,14,54,23.70
2008,09,16,14,55,23.50
2008,09,16,14,56,23.40
2008,09,16,14,57,23.40
2008,09,16,14,58,23.40
2008,09,16,14,59,23.30
2008,09,16,15,00,23.30
2008,09,16,15,01,23.20
2008,09,16,15,02,23.20
2008,09,16,15,03,23.20
2008,09,16,15,04,23.20
2008,09,16,15,05,23.10
2008,09,16,15,06,23.10
2008,09,16,15,07,23.00
2008,09,16,15,08,22.90
2008,09,16,15,09,22.80
2008,09,16,15,10,22.70
2008,09,16,15,11,22.70
2008,09,16,15,12,22.70
2008,09,16,15,13,22.70
2008,09,16,15,14,22.70
2008,09,16,15,15,22.70
2008,09,16,15,16,22.70
2008,09,16,15,17,22.60
2008,09,16,15,18,22.60
2008,09,16,15,19,22.60
2008,09,16,15,20,22.50
2008,09,16,15,21,22.40
2008,09,16,15,22,22.40
2008,09,16,15,23,22.40
2008,09,16,15,24,22.30
2008,09,16,15,25,22.30
2008,09,16,15,26,22.30
2008,09,16,15,27,22.30
2008,09,16,15,28,22.30
2008,09,16,15,29,22.30
2008,09,16,15,30,22.30
2008,09,16,15,31,22.40
2008,09,16,15,32,22.40
2008,09,16,15,33,22.40
2008,09,16,15,34,22.50
2008,09,16,15,35,22.50
2008,09,16,15,36,22.60
2008,09,16,15,37,22.60
2008,09,16,15,38,22.60
2008,09,16,15,39,22.60
2008,09,16,15,40,22.60
2008,09,16,15,41,22.60
2008,09,16,15,42,22.60
2008,09,16,15,43,22.70
2008,09,16,15,44,22.80
2008,09,16,15,45,22.80
2008,09,16,15,46,22.80
2008,09,16,15,47,22.80
2008,09,16,15,48,22.80
2008,09,16,15,49,22.80
2008,09,16,15,50,22.70
2008,09,16,15,51,22.60
2008,09,16,15,52,22.50
2008,09,16,15,53,22.30
2008,09,16,15,54,22.30
2008,09,16,15,55,22.30
2008,09,16,15,56,22.30
2008,09,16,15,57,22.40
2008,09,16,15,58,22.40
2008,09,16,15,59,22.50
2008,09,16,16,00,22.60
2008,09,16,16,01,22.60
2008,09,16,16,02,22.70
2008,09,16,16,03,22.80
2008,09,16,16,04,22.90
2008,09,16,16,05,23.00
2008,09,16,16,06,23.10
2008,09,16,16,07,23.20
2008,09,16,16,08,23.30
2008,09,16,16,09,23.40
2008,09,16,16,10,23.40
2008,09,16,16,11,23.60
2008,09,16,16,12,23.60
2008,09,16,16,13,23.80
2008,09,16,16,14,23.90
2008,09,16,16,15,24.00
2008,09,16,16,16,24.10
2008,09,16,16,17,24.20
2008,09,16,16,18,24.30
2008,09,16,16,19,24.30
2008,09,16,16,20,24.30
2008,09,16,16,21,24.30
2008,09,16,16,22,24.20
2008,09,16,16,23,24.00
2008,09,16,16,24,24.00
2008,09,16,16,25,23.90
2008,09,16,16,26,23.90
2008,09,16,16,27,23.80
2008,09,16,16,28,23.80
2008,09,16,16,29,23.80
2008,09,16,16,30,23.70
2008,09,16,16,31,23.70
2008,09,16,16,32,23.70
2008,09,16,16,33,23.70
2008,09,16,16,34,23.70
2008,09,16,16,35,23.70
2008,09,16,16,36,23.70
2008,09,16,16,37,23.70
2008,09,16,16,38,23.70
2008,09,16,16,39,23.70
2008,09,16,16,40,23.70
2008,09,16,16,41,23.70
2008,09,16,16,42,23.70
2008,09,16,16,43,23.60
2008,09,16,16,44,23.60
2008,09,16,16,45,23.60
2008,09,16,16,46,23.60
2008,09,16,16,47,23.60
2008,09,16,16,48,23.60
2008,09,16,16,49,23.60
2008,09,16,16,50,23.60
2008,09,16,16,51,23.60
2008,09,16,16,52,23.70
2008,09,16,16,53,23.70
2008,09,16,16,54,23.70
2008,09,16,16,55,23.70
2008,09,16,16,56,23.70
2008,09,16,16,57,23.70
2008,09,16,16,58,23.70
2008,09,16,16,59,23.70
2008,09,16,17,00,23.70
2008,09,16,17,01,23.70
2008,09,16,17,02,23.70
2008,09,16,17,03,23.70
2008,09,16,17,04,23.70
2008,09,16,17,05,23.80
2008,09,16,17,06,23.80
2008,09,16,17,07,23.80
2008,09,16,17,08,23.80
2008,09,16,17,09,23.80
2008,09,16,17,10,23.80
2008,09,16,17,11,23.90
2008,09,16,17,12,23.90
2008,09,16,17,13,23.90
2008,09,16,17,14,23.90
2008,09,16,17,15,23.90
2008,09,16,17,16,23.90
2008,09,16,17,17,23.90
2008,09,16,17,18,23.90
2008,09,16,17,19,23.90
2008,09,16,17,20,23.80
2008,09,16,17,21,23.80
2008,09,16,17,22,23.80
2008,09,16,17,23,23.80
2008,09,16,17,24,23.80
2008,09,16,17,25,23.80
2008,09,16,17,26,23.80
2008,09,16,17,27,23.80
2008,09,16,17,28,23.80
2008,09,16,17,29,23.80
2008,09,16,17,30,23.90
2008,09,16,17,31,23.90
2008,09,16,17,32,23.90
2008,09,16,17,33,24.00
2008,09,16,17,34,24.00
2008,09,16,17,35,24.00
2008,09,16,17,36,24.00
2008,09,16,17,37,24.10
2008,09,16,17,38,24.10
2008,09,16,17,39,24.10
2008,09,16,17,40,24.20
2008,09,16,17,41,24.20
2008,09,16,17,42,24.20
2008,09,16,17,43,24.30
2008,09,16,17,44,24.30
2008,09,16,17,45,24.30
2008,09,16,17,46,24.30
2008,09,16,17,47,24.30
2008,09,16,17,48,24.30
2008,09,16,17,49,24.30
2008,09,16,17,50,24.30